Location: La Chapelle
(48.3135°N, 1.3085°W)
Time: 07:47:08
(UTC+00:00)

FALCON 9 DEB - Pass Details

Date: 03 March 2021
Orbit: 371 x 390 km, 53.0° (Epoch: 12 April)

Event Time Altitude Azimuth Distance (km) Brightness Sun altitude
Rises 18:25:50 0° 275° (W) 2,295 9.2 -6.3°
Reaches altitude 10° 18:28:01 10° 285° (WNW) 1,440 7.2 -6.7°
Maximum altitude 18:31:01 35° 353° (N) 659 4.1 -7.2°
Drops below altitude 10° 18:34:02 10° 62° (ENE) 1,441 5.2 -7.7°
Enters shadow 18:34:18 - 64° (ENE) 1,544 5.4 -7.7°
